Regional Weather Roundup
Issued by NWS

Home | Current Version | Previous Version | Text Only | Print | Product List | Glossary Off
Versions: 1 2 3 4 5 6 7 8 9 10 11 12 13 14 15 16 17 18 19 20 21 22 23 24 25 26 27 28 29 30 31 32 33 34 35 36 37 38 39 40 41 42 43 44 45 46 47 48 49 50

000
ASUS45 KSLC 010410
RWRUT

UTAH REGIONAL WEATHER ROUNDUP
NATIONAL WEATHER SERVICE SALT LAKE CITY UT
900 PM MST SAT JAN 31 2015

UTZ001>011-023>025-010500-

NORTHERN UTAH

CITY           SKY/WX    TMP DP  RH WIND       PRES   REMARKS
BRIGHAM CITY   CLEAR     32  28  82 NE3       30.14R
HILL AFB       CLEAR     35  24  63 CALM      30.12S
LOGAN          CLEAR     30  26  85 SW6       30.14R WCI  24
OGDEN          CLEAR     31  28  89 S5        30.12S WCI  26
PROVO AIRPORT  CLEAR     37  28  70 CALM      30.12R
SALT LAKE CITY CLEAR     36  29  75 NW3       30.12S
VERNAL         CLEAR     31  29  92 VRB3      30.01R
WENDOVER       CLEAR     39  25  56 NE14      30.14R WCI  31
HEBER CITY     CLEAR     32  23  69 CALM      30.10R
WEST JORDAN    CLEAR     36  27  69 CALM      30.13R

$$

UTZ012>022-026-027-010500-

SOUTHERN/CENTRAL UTAH

CITY           SKY/WX    TMP DP  RH WIND       PRES   REMARKS
BLANDING       CLEAR     31  31 100 N3        30.07R
BRYCE CANYON   CLEAR     29  26  89 N12       30.08R WCI  19
CEDAR CITY     CLEAR     31  29  92 NW8       30.09R WCI  23
DELTA          CLEAR     33  32  99 S6        30.13S WCI  27
HANKSVILLE     CLEAR     36  36 100 CALM      30.03R
MILFORD        CLEAR     32  29  88 NE7       30.11R WCI  26
MOAB/CYNLANDS  CLOUDY    38  37  97 CALM      30.01R
PRICE          CLEAR     39  22  50 NW16      30.01R WCI  30
ST GEORGE      CLEAR     50  36  57 SW9       30.04R
KANAB          CLEAR     41  30  65 N10       30.07R

$$

REGIONAL REPORTS     COLORADO/ARIZONA

CITY           SKY/WX    TMP DP  RH WIND       PRES   REMARKS
CRAIG, CO        N/A     26  22  84 W10       29.96  WCI  16
GRAND JUNCTION CLEAR     34  33  96 CALM      30.01R
RIFLE          PTCLDY    35  28  75 CALM      29.99R
MONTROSE       CLOUDY    38  35  89 NW3       30.03R
CORTEZ         CLEAR     33  31  92 W6        29.98R WCI  28
PAGE, AZ       NOT AVBL
GRAND CANYON   CLEAR     29  29 100 CALM      30.04R
KINGMAN        CLEAR     46  40  79 E9        30.00R
FLAGSTAFF      CLEAR     32  29  88 W5        30.01R WCI  27

$$

REGIONAL REPORTS    NEVADA/IDAHO/WYOMING

CITY           SKY/WX    TMP DP  RH WIND       PRES   REMARKS
LAS VEGAS, NV  PTCLDY    56  40  55 S5        29.97R
ELY            CLEAR     31  18  58 NW3       30.14R
ELKO           CLEAR     31  24  75 SW6       30.19R WCI  25
POCATELLO, ID  MOCLDY    26  25  96 SW7       30.17R WCI  18
BURLEY         CLEAR     30  26  85 S5        30.17R WCI  25
EVANSTON, WY   PTCLDY    26  17  68 SW10      30.08R WCI  16
ROCK SPRINGS   CLEAR     27   8  44 NE15      30.01R WCI  15

$$


USA.gov is the U.S. government's official web portal to all federal, state and local government web resources and services.